[[{"header":{"parameterUnit":"m.s-1","parameterCategory":1,"la1":30.2991,"la2":30.254,"lo1":-89.0895,"lo2":-89.0444,"dy":0.0017,"dx":0.0017,"nx":28,"ny":28,"refTime":"2023-09-10T09:00:00:Z","depth":0,"parameterNumber":2,"parameterNumberName":"U-component_of_WINDS"},"data":[0,0,0,0,0,0,0,0,0,0,0,0,0,0,0,0,0,0,0,0,0,0,0,0,0,0,0,0,0,0,0,0,0,0,0,0,0,0,0,0,0,0,0,0,0,0,0,0,0,0,0,0,0,0,0,0,0,0,-1.5821,-1.5821,0,-1.5775,-1.5774,-1.5774,-1.5769,-1.577,-1.577,-1.5771,-1.5718,-1.5716,-1.5714,0,0,0,0,0,0,0,0,0,0,0,0,0,-1.5901,-1.59,-1.5822,-1.5821,-1.582,-1.5775,-1.5774,-1.5774,-1.5769,-1.577,-1.5771,-1.5771,-1.5718,-1.5716,-1.5714,0,0,0,0,0,0,0,0,0,0,0,0,0,-1.5862,-1.59,-1.5822,-1.5813,-1.5812,-1.5775,-1.5774,-1.5774,-1.5769,-1.577,-1.5771,-1.5771,-1.5719,-1.5716,-1.5713,-1.5681,0,0,-1.5705,-1.5704,0,0,0,0,0,0,0,0,-1.5864,-1.5859,-1.5815,-1.5813,-1.5812,-1.5779,-1.5783,-1.5742,-1.5769,-1.5785,-1.5771,-1.5772,-1.5737,-1.5733,-1.5722,-1.5678,-1.5676,-1.5705,-1.5703,-1.5702,-1.5701,0,0,0,0,0,0,0,-1.5867,-1.5861,-1.5803,-1.5814,-1.5812,-1.581,-1.5805,-1.5775,-1.5757,-1.5784,-1.5783,-1.5778,-1.5736,-1.5725,-1.5721,-1.5675,-1.5705,-1.5702,-1.57,-1.5699,-1.5601,-1.56,0,0,0,0,0,0,-1.5872,-1.5863,-1.5804,-1.5802,-1.5841,-1.5808,-1.5802,-1.5789,-1.5758,-1.5754,-1.5778,-1.5778,-1.5729,-1.5724,-1.5719,-1.5678,-1.5702,-1.5699,-1.5697,-1.5602,-1.5601,-1.56,0,0,0,0,0,0,-1.5874,-1.5867,-1.5806,-1.5832,-1.5824,-1.5805,-1.579,-1.5787,-1.5776,-1.5753,-1.5749,-1.577,-1.573,-1.5723,-1.5691,-1.5676,-1.5698,-1.5695,-1.5603,-1.5602,-1.5601,-1.5597,0,0,0,0,0,0,-1.5876,-1.5868,-1.5856,-1.5832,-1.5823,-1.578,-1.5789,-1.5786,-1.5772,-1.5772,-1.5744,-1.5741,-1.573,-1.5695,-1.5688,-1.5673,-1.5693,-1.5604,-1.5603,-1.5601,-1.5598,-1.5595,-1.5593,0,0,0,0,0,-1.5879,-1.5856,-1.5856,-1.5848,-1.5809,-1.5779,-1.5774,-1.5764,-1.5771,-1.5758,-1.5743,-1.5741,-1.5679,-1.5692,-1.5684,-1.5667,-1.5605,-1.5603,-1.5601,-1.5599,-1.5596,-1.5593,0,0,0,0,0,0,-1.5876,-1.5852,-1.5852,-1.5821,-1.5802,-1.5779,-1.5763,-1.5761,-1.5739,-1.574,-1.5726,-1.572,-1.5688,-1.5674,-1.5689,-1.5634,-1.5643,-1.5639,-1.5644,-1.5641,-1.5638,-1.5642,-1.5691,0,0,0,0,0,-1.5873,-1.5853,-1.5832,-1.5806,-1.5797,-1.5782,-1.5768,-1.5762,-1.5742,-1.5734,-1.5717,-1.5695,-1.5671,-1.5655,-1.5632,-1.5596,-1.5589,-1.5581,-1.5579,-1.5577,-1.5573,-1.5553,-1.5549,-1.5593,-1.5593,-1.5593,0,0,-1.5863,-1.5848,-1.5836,-1.5805,-1.579,-1.5768,-1.5775,-1.5751,-1.5734,-1.5729,-1.5698,-1.5685,-1.566,-1.5626,-1.561,-1.5614,-1.556,-1.5574,-1.5573,-1.557,-1.555,-1.5546,-1.5542,-1.5592,-1.5592,-1.5593,0,0,-1.5836,-1.5823,-1.58,-1.5785,-1.5763,-1.5753,-1.5748,-1.5725,-1.5716,-1.5685,-1.5681,-1.566,-1.5618,-1.5601,-1.5587,-1.5553,-1.555,-1.5546,-1.5532,-1.5513,-1.5509,-1.5506,-1.5493,-1.5488,-1.5542,-1.5542,-1.5542,0,-1.5827,-1.5795,-1.5788,-1.5764,-1.5751,-1.5747,-1.5723,-1.5709,-1.5679,-1.5669,-1.5674,-1.5622,-1.5605,-1.5567,-1.5559,-1.5548,-1.554,-1.5548,-1.5511,-1.5507,-1.5504,-1.5491,-1.5487,-1.5542,-1.5542,-1.5542,-1.5542,0,-1.5785,-1.5763,-1.5747,-1.5721,-1.5705,-1.5681,-1.5668,-1.5653,-1.5649,-1.5637,-1.5605,-1.5585,-1.5557,-1.5548,-1.5542,-1.5508,-1.5511,-1.5514,-1.5522,-1.55,-1.5487,-1.5483,-1.5541,-1.5541,-1.5542,-1.5542,0,0,-1.5753,-1.5725,-1.5718,-1.5707,-1.5683,-1.5664,-1.564,-1.5615,-1.5601,-1.5581,-1.5559,-1.5525,-1.5527,-1.5511,-1.5503,-1.5486,-1.546,-1.5491,-1.549,-1.5485,-1.542,-1.5418,-1.5412,-1.5458,-1.5457,-1.5457,-1.5422,0,-1.5722,-1.5681,-1.5674,-1.5637,-1.5616,-1.5613,-1.5591,-1.5573,-1.5562,-1.5541,-1.5528,-1.5504,-1.5509,-1.5499,-1.5482,-1.5467,-1.5447,-1.5469,-1.5436,-1.5435,-1.5441,-1.5406,-1.5404,-1.5372,-1.5417,-1.5416,-1.5416,0,-1.5681,-1.5662,-1.5623,-1.5602,-1.5593,-1.5574,-1.555,-1.5531,-1.551,-1.5503,-1.5486,-1.548,-1.5453,-1.5464,-1.5425,-1.5441,-1.5427,-1.5417,-1.5415,-1.5411,-1.5423,-1.54,-1.5361,-1.5356,-1.5408,-1.5409,-1.5409,0,-1.566,-1.5625,-1.5598,-1.5587,-1.5562,-1.5549,-1.5538,-1.5518,-1.5503,-1.5481,-1.5471,-1.5446,-1.5432,-1.5412,-1.5399,-1.5409,-1.5361,-1.5371,-1.5353,-1.5354,-1.5343,-1.5343,-1.53,-1.5335,-1.5335,-1.5335,-1.5336,0,-1.5626,-1.5602,-1.5588,-1.5571,-1.5544,-1.5535,-1.5508,-1.5496,-1.5479,-1.5458,-1.5453,-1.5433,-1.5419,-1.5396,-1.5386,-1.5355,-1.5349,-1.5341,-1.5338,-1.5341,-1.5342,-1.5331,-1.5332,-1.5334,-1.5334,-1.5335,-1.5335,0,-1.5598,-1.5588,-1.5558,-1.5537,-1.5532,-1.5512,-1.5494,-1.5476,-1.5466,-1.5439,-1.5432,-1.5415,-1.5389,-1.5375,-1.5341,-1.5334,-1.5299,-1.5298,-1.5306,-1.5305,-1.5288,-1.5289,-1.5235,-1.5227,-1.5268,-1.5268,-1.5268,0,-1.5577,-1.5559,-1.5537,-1.5524,-1.5513,-1.5491,-1.5477,-1.5467,-1.5451,-1.5426,-1.5411,-1.5385,-1.5363,-1.5321,-1.5304,-1.5278,-1.5275,-1.5258,-1.5271,-1.5274,-1.5274,-1.5275,-1.5272,-1.5256,-1.5255,-1.5255,-1.5255,0,-1.5539,-1.5535,-1.5515,-1.5494,-1.5477,-1.5459,-1.5441,-1.543,-1.5417,-1.54,-1.5374,-1.5357,-1.5324,-1.5297,-1.527,-1.5256,-1.5252,-1.5251,-1.5245,-1.5247,-1.5253,-1.5248,-1.5299,-1.5252,-1.5252,-1.5253,-1.5253,-1.5253,-1.5513,-1.5497,-1.5479,-1.5457,-1.5443,-1.5426,-1.5409,-1.5397,-1.5376,-1.5349,-1.5344,-1.5316,-1.5295,-1.5258,-1.5244,-1.522,-1.5224,-1.5216,-1.5213,-1.5211,-1.521,-1.5258,-1.5216,-1.5216,-1.5216,-1.5216,-1.5216,0,-1.5474,-1.5463,-1.5443,-1.5419,-1.5401,-1.5402,-1.5383,-1.5367,-1.5343,-1.5325,-1.5304,-1.5274,-1.5248,-1.523,-1.5203,-1.5188,-1.5185,-1.5181,-1.5181,-1.5178,-1.5209,-1.5216,-1.5183,-1.5183,-1.5183,-1.5183,-1.5183,-1.5183,-1.5452,-1.5424,-1.5418,-1.5383,-1.5372,-1.5346,-1.5335,-1.5319,-1.5304,-1.5271,-1.525,-1.5239,-1.522,-1.5192,-1.5168,-1.5163,-1.5153,-1.5149,-1.5143,-1.5172,-1.5176,-1.5179,-1.5186,-1.5147,-1.5147,-1.5114,-1.5113,-1.5113]},{"header":{"parameterUnit":"m.s-1","parameterCategory":1,"la1":30.2991,"la2":30.254,"lo1":-89.0895,"lo2":-89.0444,"dy":0.0017,"dx":0.0017,"nx":28,"ny":28,"refTime":"2023-09-10T09:00:00:Z","depth":0,"parameterNumber":3,"parameterNumberName":"V-component_of_WINDS"},"data":[0,0,0,0,0,0,0,0,0,0,0,0,0,0,0,0,0,0,0,0,0,0,0,0,0,0,0,0,0,0,0,0,0,0,0,0,0,0,0,0,0,0,0,0,0,0,0,0,0,0,0,0,0,0,0,0,0,0,-0.0378,-0.0379,0,-0.0395,-0.0396,-0.0396,-0.0399,-0.0399,-0.0399,-0.0399,-0.0417,-0.0417,-0.0418,0,0,0,0,0,0,0,0,0,0,0,0,0,-0.0349,-0.0349,-0.0378,-0.0379,-0.0379,-0.0395,-0.0396,-0.0396,-0.0399,-0.0399,-0.0399,-0.0399,-0.0417,-0.0417,-0.0418,0,0,0,0,0,0,0,0,0,0,0,0,0,-0.0363,-0.0349,-0.0378,-0.0382,-0.0383,-0.0395,-0.0396,-0.0396,-0.0399,-0.0399,-0.0399,-0.0399,-0.0416,-0.0417,-0.0418,-0.0428,0,0,-0.0421,-0.0421,0,0,0,0,0,0,0,0,-0.0362,-0.0364,-0.0382,-0.0382,-0.0383,-0.0395,-0.0392,-0.0407,-0.0399,-0.0393,-0.0399,-0.0399,-0.041,-0.0411,-0.0415,-0.0429,-0.0429,-0.0421,-0.0422,-0.0422,-0.0422,0,0,0,0,0,0,0,-0.0361,-0.0364,-0.0385,-0.0382,-0.0383,-0.0383,-0.0385,-0.0395,-0.0402,-0.0394,-0.0394,-0.0396,-0.041,-0.0414,-0.0415,-0.043,-0.0421,-0.0422,-0.0422,-0.0423,-0.0451,-0.0451,0,0,0,0,0,0,-0.036,-0.0363,-0.0385,-0.0386,-0.0372,-0.0384,-0.0386,-0.0391,-0.0402,-0.0404,-0.0396,-0.0396,-0.0413,-0.0414,-0.0416,-0.0427,-0.0422,-0.0423,-0.0423,-0.0451,-0.0451,-0.0451,0,0,0,0,0,0,-0.0359,-0.0362,-0.0384,-0.0374,-0.0377,-0.0385,-0.0391,-0.0392,-0.0396,-0.0404,-0.0406,-0.0399,-0.0412,-0.0415,-0.0425,-0.0428,-0.0423,-0.0424,-0.0451,-0.0451,-0.0451,-0.0451,0,0,0,0,0,0,-0.0358,-0.0361,-0.0365,-0.0374,-0.0378,-0.0392,-0.0391,-0.0392,-0.0397,-0.0397,-0.0407,-0.0408,-0.0412,-0.0423,-0.0425,-0.0429,-0.0425,-0.045,-0.0451,-0.0451,-0.0451,-0.0451,-0.0452,0,0,0,0,0,-0.0357,-0.0365,-0.0365,-0.0368,-0.0383,-0.0393,-0.0395,-0.0399,-0.0397,-0.0401,-0.0407,-0.0408,-0.0427,-0.0424,-0.0427,-0.0431,-0.045,-0.0451,-0.0451,-0.045,-0.0451,-0.0452,0,0,0,0,0,0,-0.0356,-0.0366,-0.0367,-0.0378,-0.0384,-0.0393,-0.0398,-0.04,-0.0407,-0.0407,-0.0412,-0.0414,-0.0424,-0.0428,-0.0425,-0.044,-0.0439,-0.044,-0.0437,-0.0438,-0.0438,-0.0437,-0.0425,0,0,0,0,0,-0.0357,-0.0364,-0.0372,-0.0381,-0.0384,-0.0391,-0.0395,-0.0398,-0.0405,-0.0408,-0.0414,-0.0421,-0.0428,-0.0433,-0.0441,-0.0451,-0.0453,-0.0455,-0.0456,-0.0456,-0.0457,-0.0462,-0.0463,-0.0453,-0.0453,-0.0453,0,0,-0.0359,-0.0366,-0.037,-0.0381,-0.0387,-0.0394,-0.0393,-0.0401,-0.0406,-0.0409,-0.0419,-0.0423,-0.0431,-0.0441,-0.0446,-0.0445,-0.046,-0.0457,-0.0457,-0.0458,-0.0463,-0.0464,-0.0464,-0.0453,-0.0453,-0.0453,0,0,-0.0367,-0.0373,-0.038,-0.0385,-0.0393,-0.0397,-0.0399,-0.0408,-0.0411,-0.042,-0.0422,-0.0429,-0.0442,-0.0447,-0.0452,-0.046,-0.0462,-0.0462,-0.0465,-0.047,-0.0471,-0.0472,-0.0475,-0.0476,-0.0463,-0.0463,-0.0463,0,-0.0369,-0.038,-0.0384,-0.0392,-0.0396,-0.0399,-0.0406,-0.0411,-0.0421,-0.0424,-0.0423,-0.0439,-0.0445,-0.0456,-0.0458,-0.0461,-0.0463,-0.0462,-0.0471,-0.0471,-0.0472,-0.0475,-0.0476,-0.0463,-0.0463,-0.0463,-0.0463,0,-0.0382,-0.0389,-0.0395,-0.0404,-0.0409,-0.0416,-0.0421,-0.0426,-0.0428,-0.0432,-0.0441,-0.0448,-0.0456,-0.0459,-0.0462,-0.047,-0.047,-0.0469,-0.0468,-0.0473,-0.0476,-0.0477,-0.0463,-0.0463,-0.0463,-0.0463,0,0,-0.0391,-0.0401,-0.0403,-0.0407,-0.0415,-0.0421,-0.0428,-0.0436,-0.044,-0.0447,-0.0453,-0.0463,-0.0463,-0.0468,-0.0471,-0.0475,-0.0481,-0.0474,-0.0475,-0.0475,-0.0491,-0.0491,-0.0492,-0.0482,-0.0482,-0.0482,-0.049,0,-0.04,-0.0413,-0.0416,-0.0427,-0.0434,-0.0435,-0.0442,-0.0447,-0.0451,-0.0457,-0.0461,-0.0468,-0.0468,-0.047,-0.0475,-0.0479,-0.0484,-0.0479,-0.0487,-0.0488,-0.0486,-0.0493,-0.0494,-0.0501,-0.0491,-0.0491,-0.0491,0,-0.0412,-0.0418,-0.043,-0.0436,-0.0439,-0.0445,-0.0452,-0.0458,-0.0464,-0.0467,-0.0472,-0.0474,-0.0481,-0.0479,-0.0489,-0.0485,-0.0488,-0.0491,-0.0492,-0.0493,-0.049,-0.0495,-0.0503,-0.0504,-0.0493,-0.0493,-0.0493,0,-0.0417,-0.0428,-0.0436,-0.044,-0.0448,-0.0452,-0.0455,-0.0461,-0.0466,-0.0472,-0.0474,-0.0482,-0.0485,-0.0491,-0.0494,-0.0492,-0.0504,-0.0502,-0.0506,-0.0506,-0.0509,-0.0509,-0.0518,-0.0511,-0.0511,-0.0511,-0.0511,0,-0.0427,-0.0434,-0.0439,-0.0444,-0.0451,-0.0455,-0.0462,-0.0466,-0.0471,-0.0477,-0.0479,-0.0484,-0.0489,-0.0494,-0.0497,-0.0505,-0.0507,-0.0509,-0.0509,-0.0509,-0.0508,-0.0511,-0.0511,-0.0511,-0.0511,-0.0511,-0.0511,0,-0.0434,-0.0437,-0.0446,-0.0453,-0.0455,-0.046,-0.0466,-0.0471,-0.0474,-0.0481,-0.0483,-0.0488,-0.0495,-0.0499,-0.0508,-0.051,-0.0518,-0.0519,-0.0516,-0.0516,-0.052,-0.0519,-0.0532,-0.0533,-0.0525,-0.0525,-0.0525,0,-0.044,-0.0445,-0.0452,-0.0456,-0.0459,-0.0465,-0.0469,-0.0473,-0.0477,-0.0484,-0.0488,-0.0495,-0.05,-0.0511,-0.0516,-0.0522,-0.0523,-0.0527,-0.0524,-0.0523,-0.0523,-0.0522,-0.0523,-0.0527,-0.0527,-0.0527,-0.0527,0,-0.045,-0.0451,-0.0457,-0.0463,-0.0468,-0.0473,-0.0478,-0.0481,-0.0485,-0.049,-0.0497,-0.0501,-0.051,-0.0516,-0.0523,-0.0527,-0.0528,-0.0528,-0.0529,-0.0529,-0.0527,-0.0528,-0.0517,-0.0528,-0.0528,-0.0528,-0.0528,-0.0528,-0.0457,-0.0461,-0.0467,-0.0473,-0.0477,-0.0481,-0.0486,-0.0489,-0.0495,-0.0502,-0.0504,-0.0511,-0.0516,-0.0525,-0.0529,-0.0534,-0.0533,-0.0535,-0.0536,-0.0536,-0.0536,-0.0526,-0.0535,-0.0535,-0.0535,-0.0535,-0.0535,0,-0.0467,-0.047,-0.0476,-0.0483,-0.0487,-0.0487,-0.0493,-0.0497,-0.0503,-0.0508,-0.0513,-0.052,-0.0526,-0.0531,-0.0537,-0.0541,-0.0541,-0.0542,-0.0542,-0.0543,-0.0536,-0.0535,-0.0542,-0.0542,-0.0542,-0.0542,-0.0542,-0.0542,-0.0473,-0.048,-0.0482,-0.0491,-0.0495,-0.0501,-0.0504,-0.0508,-0.0512,-0.052,-0.0525,-0.0528,-0.0532,-0.0539,-0.0544,-0.0546,-0.0548,-0.0549,-0.055,-0.0544,-0.0543,-0.0543,-0.0541,-0.0549,-0.0549,-0.0556,-0.0556,-0.0556]}]]